RH
69 59 56 64 69 84 85 99 92 93 75 78 88 86 72 67 49 41 35 33 39 31 27 28 32 31 29 27 26 25 23 23 20 22 21 19 16 15 14 12 13 14 15
75 63 58 67 65 81 79 99 80 97 71 80 76 86 75 66 51 41 37 32 29 28 31 30 30 30 32 31 29 26 25 23 21 20 20 21 19 16 14 14 17 20 25
80 71 63 69 70 86 96 82 88 97 88 85 75 89 88 73 63 53 43 33 25 27 30 33 33 33 32 31 28 26 24 22 22 21 19 20 19 17 17 20 24 30 36
80 79 71 76 76 95 94 85 87 89 80 88 82 84 86 75 60 48 35 25 25 27 29 36 32 31 30 29 27 27 26 24 20 20 18 17 15 19 22 27 33 38 38
86 85 79 77 78 88 87 96 92 98 96 83 81 82 87 83 69 59 42 29 28 32 30 35 35 27 28 26 26 27 27 25 22 17 17 19 18 20 25 35 38 38 38
85 91 82 83 80 82 96 97 98 92 97 95 81 83 82 82 74 62 52 35 33 32 32 32 32 29 28 25 24 26 25 23 22 18 18 21 22 26 37 39 40 40 37
86 95 83 81 81 92 87 97 96 94 88 97 92 82 81 77 76 61 52 45 42 34 31 32 31 27 26 26 26 27 26 24 22 20 20 26 37 39 42 42 43 41 37
93 96 88 86 83 87 88 91 99 94 99 90 98 88 81 81 78 64 58 44 43 44 33 32 35 32 29 29 30 31 29 27 25 23 26 35 46 46 47 46 45 42 40
97 96 96 86 86 98 97 97 96 98 94 93 94 95 97 78 78 69 65 55 43 42 48 47 41 38 34 33 35 35 32 32 29 25 30 41 50 50 52 52 49 45 44
95 96 96 89 88 97 94 97 96 97 93 93 94 98 92 83 78 77 70 66 51 45 45 53 56 50 41 37 41 40 37 36 34 32 35 48 56 57 59 58 57 52 48
94 96 96 93 87 92 97 98 99 98 99 97 99 94 96 87 79 85 77 72 64 50 50 53 54 57 60 57 59 57 52 46 45 44 50 58 64 65 65 62 56 50 48
88 90 95 97 88 92 96 98 97 97 94 97 97 98 94 94 96 88 85 79 75 61 53 56 59 58 58 54 55 58 56 55 53 55 60 63 66 65 63 58 50 47 46
80 89 94 93 96 89 91 93 89 97 98 95 98 98 97 96 96 92 91 91 83 72 61 59 58 55 51 48 45 46 48 46 44 46 50 54 58 58 56 53 50 48 48
71 79 89 94 93 93 91 95 95 98 96 98 98 98 99 97 97 96 93 95 97 88 74 67 65 63 59 51 45 41 41 43 42 40 45 50 54 56 56 53 52 52 51
66 71 85 90 97 94 93 91 92 92 91 98 91 95 95 97 98 97 99 97 98 98 84 78 73 74 70 62 56 48 42 40 41 41 42 48 52 55 53 54 53 55 53
68 67 74 80 91 95 94 92 91 87 87 82 87 92 96 98 98 98 98 99 94 98 99 95 90 84 79 74 69 62 50 44 42 40 41 46 50 54 54 56 59 58 54
67 66 68 73 81 91 94 95 94 90 86 83 83 86 84 89 97 94 96 96 99 98 98 99 99 95 92 84 76 80 69 61 53 47 43 44 47 51 55 59 61 62 62
59 60 63 67 73 79 91 93 94 93 90 86 84 80 82 81 87 91 93 91 95 98 99 98 98 97 97 89 86 90 91 76 72 65 55 47 48 52 56 60 63 64 67
55 60 63 64 70 74 83 87 88 89 87 88 85 84 83 85 83 88 91 95 94 93 90 97 97 97 95 97 99 93 95 91 90 84 74 64 54 57 59 63 63 69 68
52 55 57 61 64 70 75 82 86 84 84 86 86 88 90 87 86 86 86 90 91 92 91 92 96 99 96 98 98 98 98 97 98 95 92 83 72 68 65 70 68 75 72
37 52 54 56 61 64 70 74 80 82 82 86 89 90 91 91 86 86 89 87 89 89 88 88 92 96 96 96 94 95 98 97 97 98 94 96 90 82 82 74 73 71 85
32 38 51 56 57 62 65 70 74 79 80 81 80 87 92 92 93 88 86 88 86 86 85 90 91 93 98 93 94 95 97 98 98 97 98 96 95 96 94 92 91 95 89
33 35 40 52 56 61 62 66 69 74 78 80 82 79 84 92 91 93 89 87 86 84 82 84 88 91 93 96 94 96 97 98 99 98 98 98 98 93 95 97 97 98 99
29 36 37 44 55 60 61 63 66 67 73 78 78 81 78 81 91 91 91 91 89 88 86 85 81 82 89 91 95 94 96 96 97 99 98 96 95 98 98 99 97 97 99
31 31 37 39 45 54 59 64 66 67 67 73 74 78 78 78 80 87 92 91 91 92 92 87 83 83 86 87 87 88 92 94 98 98 96 95 98 98 98 98 99 97 98
32 31 32 38 41 46 56 59 62 64 64 66 70 74 74 72 76 77 78 87 90 91 92 92 90 88 86 86 86 85 88 91 95 98 97 97 97 99 98 98 98 98 98